This demonstration page uses our WeatherBlox Daily Observations layout. Learn more.

Left ArrowRight Arrow

Hourly Observations for September 27, 2022

Temp ( °F °C ) Dew Point ( °F °C ) Humidity (%) Winds ( mph kmh ) Pressure ( in mb ) Visibility ( mi km ) Precip ( " mm )
12:53 am 00:53 Clear 53 11.7 44 6.7 71 71 SSW 5 7 30.10 1019 10 16 0.00 0.00
1:53 am 01:53 Clear 52 11.1 44 6.7 74 74 SSW 5 7 30.10 1019 10 16 0.00 0.00
2:53 am 02:53 Clear 53 11.7 42 5.6 66 66 Calm 30.10 1019 10 16 0.00 0.00
3:53 am 03:53 Clear 50 10 42 5.6 74 74 Calm 30.10 1019 10 16 0.00 0.00
4:53 am 04:53 Clear 49 9.4 43 6.1 80 80 Calm 30.09 1019 10 16 0.00 0.00
5:53 am 05:53 Clear 48 8.9 42 5.6 80 80 undefined N/A 30.11 1020 10 16 0.00 0.00
6:53 am 06:53 Clear 48 8.9 42 5.6 80 80 undefined N/A 30.11 1020 10 16 0.00 0.00
7:53 am 07:53 Sunny 49 9.4 43 6.1 80 80 Calm 30.13 1020 10 16 0.00 0.00
8:53 am 08:53 Sunny 57 13.9 46 7.8 67 67 Calm 30.12 1020 10 16 0.00 0.00
9:53 am 09:53 Sunny 64 17.8 48 8.9 56 56 NW 7 11 30.13 1020 10 16 0.00 0.00
10:53 am 10:53 Sunny 70 21.1 47 8.3 44 44 N 5 7 30.14 1021 10 16 0.00 0.00
11:53 am 11:53 Sunny 76 24.4 45 7.2 33 33 NE 9 15 30.14 1021 10 16 0.00 0.00
12:53 pm 12:53 Sunny 78 25.6 45 7.2 31 31 NNE 12 19 30.14 1021 10 16 0.00 0.00
1:53 pm 13:53 Sunny 80 26.7 44 6.7 28 28 NNE 9 15 30.14 1021 10 16 0.00 0.00
2:53 pm 14:53 Sunny 80 26.7 43 6.1 27 27 NE 12 19 30.14 1021 10 16 0.00 0.00
3:53 pm 15:53 Sunny 81 27.2 44 6.7 27 27 NE 12 19 30.13 1020 10 16 0.00 0.00
4:53 pm 16:53 Sunny 80 26.7 43 6.1 27 27 NE 12 19 30.14 1021 10 16 0.00 0.00
5:53 pm 17:53 Sunny 77 25 44 6.7 31 31 E 10 17 30.16 1021 10 16 0.00 0.00
6:53 pm 18:53 Sunny 73 22.8 44 6.7 35 35 ENE 8 13 30.18 1022 10 16 0.00 0.00
7:53 pm 19:53 Clear 65 18.3 45 7.2 48 48 ENE 7 11 30.21 1023 10 16 0.00 0.00
8:53 pm 20:53 Clear 62 16.7 43 6.1 50 50 ENE 7 11 30.23 1024 10 16 0.00 0.00
9:53 pm 21:53 Clear 61 16.1 41 5 48 48 ENE 10 17 30.26 1025 10 16 0.00 0.00
10:53 pm 22:53 Clear 61 16.1 40 4.4 46 46 E 10 17 30.27 1025 10 16 0.00 0.00
11:53 pm 23:53 Clear 59 15 41 5 51 51 E 9 15 30.30 1026 10 16 0.00 0.00

Powered by AerisWeather